Location: Unspecified
(0.0000°N, 0.0000°E)
Time: 14:43:31
(UTC+00:00)

Envisat - Visible Passes

Search period start: 22 July 2017 00:00
Search period end: 01 August 2017 00:00
Orbit: 764 x 766 km, 98.2° (Epoch: 21 July)

Date Brightness Start Highest point End Pass type
(mag) Time Alt. Az. Time Alt. Az. Time Alt. Az.
22 Jul 5.1 19:23:12 11° NE 19:23:12 11° NE 19:23:39 10° NE visible
22 Jul 5.5 21:03:25 16° NW 21:03:25 16° NW 21:04:36 10° NW visible
23 Jul 4.6 20:26:18 26° N 20:26:18 26° N 20:28:29 10° N visible
24 Jul 4.7 19:49:11 19° NE 19:49:11 19° NE 19:51:05 10° NNE visible
25 Jul 5.3 20:52:16 19° NW 20:52:16 19° NW 20:53:49 10° NNW visible
26 Jul 4.6 20:15:10 25° N 20:15:10 25° N 20:17:20 10° N visible
27 Jul 4.9 19:38:04 15° NE 19:38:04 15° NE 19:39:28 10° NNE visible
27 Jul 6.0 21:18:16 11° NW 21:18:16 11° NW 21:18:26 10° NW visible
28 Jul 5.0 20:41:10 22° NNW 20:41:10 22° NNW 20:42:55 10° NNW visible
29 Jul 4.6 20:04:04 23° NNE 20:04:04 23° NNE 20:06:04 10° N visible
30 Jul 5.1 19:26:57 12° NE 19:26:57 12° NE 19:27:34 10° NE visible
30 Jul 5.7 21:07:10 13° NW 21:07:10 13° NW 21:07:52 10° NW visible
31 Jul 4.9 20:30:04 23° NNW 20:30:04 23° NNW 20:31:55 10° NNW visible
